When you browse on this site, cookies collect data to enhance your experience and personalize the content and advertising you see.
Visit our Privacy Policy to learn more. By continuing to use the site, you agree to this use of cookies and data.
  • In Hungary
  • List of Countries
  • For 7 days
  • Water Temperature
  • Satellite Maps
  • Weather Map
  • News
  • Weather Widgets
  • user-avatar
    Login

    Hourly Weather Penonomé

    Today, 17 November, Saturday

    Time Temperature Precipitation Wind Pressure Humidity
    00:00 +26°C° 0 mm 3 mps 749 mmHg 86%
    01:00 +26°C° 0 mm 3 mps 748 mmHg 87%
    02:00 +26°C° 0 mm 3 mps 748 mmHg 88%
    03:00 +26°C° 0 mm 3 mps 748 mmHg 88%
    04:00 +26°C° 0 mm 3 mps 748 mmHg 89%
    05:00 +26°C° 0 mm 3 mps 748 mmHg 89%
    06:00 +26°C° 0 mm 3 mps 749 mmHg 89%
    07:00 +26°C° 0 mm 3 mps 749 mmHg 89%
    08:00 +28°C° 0 mm 3 mps 749 mmHg 83%
    09:00 +29°C° 0 mm 3 mps 750 mmHg 78%
    10:00 +31°C° 0 mm 3 mps 750 mmHg 72%
    11:00 +31°C° 0.2 mm 3 mps 750 mmHg 71%
    12:00 +32°C° 0.2 mm 4 mps 749 mmHg 70%
    13:00 +33°C° 0.2 mm 4 mps 748 mmHg 69%
    14:00 +33°C° 0.3 mm 4 mps 748 mmHg 70%
    15:00 +32°C° 0.3 mm 4 mps 747 mmHg 71%
    16:00 +32°C° 0.3 mm 4 mps 747 mmHg 72%
    17:00 +30°C° 0.1 mm 4 mps 747 mmHg 76%
    18:00 +28°C° 0.1 mm 4 mps 747 mmHg 80%
    19:00 +27°C° 0.1 mm 3 mps 747 mmHg 84%
    20:00 +27°C° 0 mm 3 mps 748 mmHg 84%
    21:00 +27°C° 0 mm 3 mps 748 mmHg 84%
    22:00 +26°C° 0 mm 3 mps 749 mmHg 85%
    23:00 +26°C° 0 mm 3 mps 749 mmHg 85%

    Tomorrow, 18 November, Sunday

    Time Temperature Precipitation Wind Pressure Humidity
    00:00 +26°C° 0 mm 3 mps 749 mmHg 85%
    01:00 +26°C° 0 mm 3 mps 748 mmHg 86%
    02:00 +26°C° 0 mm 3 mps 748 mmHg 86%
    03:00 +26°C° 0 mm 3 mps 748 mmHg 87%
    04:00 +26°C° 0 mm 3 mps 748 mmHg 87%
    05:00 +26°C° 0 mm 3 mps 748 mmHg 87%
    06:00 +26°C° 0 mm 3 mps 748 mmHg 87%
    07:00 +26°C° 0 mm 3 mps 749 mmHg 88%
    08:00 +28°C° 0 mm 3 mps 749 mmHg 83%
    09:00 +29°C° 0 mm 4 mps 750 mmHg 77%
    10:00 +32°C° 0 mm 4 mps 750 mmHg 72%
    11:00 +32°C° 0.1 mm 4 mps 750 mmHg 71%
    12:00 +33°C° 0.1 mm 4 mps 749 mmHg 70%
    13:00 +33°C° 0.1 mm 4 mps 749 mmHg 68%
    14:00 +33°C° 0.4 mm 4 mps 748 mmHg 70%
    15:00 +32°C° 0.4 mm 4 mps 747 mmHg 72%
    16:00 +32°C° 0.4 mm 4 mps 747 mmHg 74%
    17:00 +29°C° 0.1 mm 4 mps 747 mmHg 77%
    18:00 +28°C° 0.1 mm 4 mps 747 mmHg 81%
    19:00 +27°C° 0.1 mm 3 mps 748 mmHg 84%
    20:00 +27°C° 0 mm 3 mps 748 mmHg 84%
    21:00 +27°C° 0 mm 3 mps 749 mmHg 84%
    22:00 +27°C° 0 mm 3 mps 749 mmHg 84%
    23:00 +26°C° 0 mm 3 mps 749 mmHg 85%

    Day after tomorrow, 19 November, Monday

    Time Temperature Precipitation Wind Pressure Humidity
    00:00 +26°C° 0 mm 3 mps 749 mmHg 85%
    01:00 +26°C° 0 mm 3 mps 748 mmHg 86%
    02:00 +26°C° 0 mm 3 mps 748 mmHg 86%
    03:00 +26°C° 0 mm 3 mps 748 mmHg 87%
    04:00 +26°C° 0 mm 3 mps 747 mmHg 87%
    05:00 +26°C° 0 mm 3 mps 748 mmHg 87%
    06:00 +26°C° 0 mm 3 mps 748 mmHg 87%
    07:00 +26°C° 0 mm 3 mps 748 mmHg 87%
    08:00 +28°C° 0 mm 3 mps 749 mmHg 82%
    09:00 +29°C° 0 mm 3 mps 749 mmHg 76%
    10:00 +31°C° 0 mm 3 mps 750 mmHg 71%
    11:00 +31°C° 0.4 mm 3 mps 749 mmHg 69%
    12:00 +33°C° 0.4 mm 3 mps 749 mmHg 68%
    13:00 +33°C° 0.4 mm 3 mps 748 mmHg 66%
    14:00 +33°C° 1.1 mm 3 mps 747 mmHg 69%
    15:00 +31°C° 1.1 mm 3 mps 747 mmHg 71%
    16:00 +31°C° 1.1 mm 3 mps 746 mmHg 73%
    17:00 +30°C° 0.5 mm 2 mps 747 mmHg 77%
    18:00 +29°C° 0.5 mm 2 mps 747 mmHg 81%
    19:00 +27°C° 0.5 mm 2 mps 747 mmHg 85%
    20:00 +27°C° 0.2 mm 2 mps 748 mmHg 85%
    21:00 +27°C° 0.2 mm 2 mps 748 mmHg 86%
    22:00 +27°C° 0.2 mm 2 mps 749 mmHg 87%
    23:00 +26°C° 0.1 mm 2 mps 749 mmHg 87%

    20 November, Tuesday

    Time Temperature Precipitation Wind Pressure Humidity
    00:00 +26°C° 0.1 mm 2 mps 748 mmHg 87%
    01:00 +26°C° 0.1 mm 2 mps 748 mmHg 87%
    02:00 +26°C° 0 mm 2 mps 748 mmHg 88%
    03:00 +26°C° 0 mm 2 mps 748 mmHg 88%
    04:00 +26°C° 0 mm 2 mps 747 mmHg 89%
    05:00 +26°C° 0.2 mm 2 mps 748 mmHg 89%
    06:00 +26°C° 0.2 mm 2 mps 748 mmHg 90%
    07:00 +26°C° 0.2 mm 2 mps 749 mmHg 90%
    08:00 +28°C° 0.1 mm 2 mps 749 mmHg 85%
    09:00 +29°C° 0.1 mm 2 mps 750 mmHg 79%
    10:00 +31°C° 0.1 mm 2 mps 750 mmHg 73%
    11:00 +31°C° 0.8 mm 2 mps 749 mmHg 72%
    12:00 +31°C° 0.8 mm 2 mps 749 mmHg 72%
    13:00 +32°C° 0.8 mm 2 mps 748 mmHg 71%
    14:00 +31°C° 1.7 mm 2 mps 747 mmHg 74%
    15:00 +30°C° 1.7 mm 2 mps 747 mmHg 77%
    16:00 +30°C° 1.7 mm 2 mps 747 mmHg 80%
    17:00 +29°C° 1.1 mm 2 mps 747 mmHg 83%
    18:00 +28°C° 1.1 mm 2 mps 748 mmHg 86%
    19:00 +27°C° 1.1 mm 2 mps 748 mmHg 89%
    20:00 +27°C° 0.2 mm 2 mps 749 mmHg 90%
    21:00 +26°C° 0.2 mm 2 mps 749 mmHg 90%
    22:00 +26°C° 0.2 mm 2 mps 750 mmHg 90%
    23:00 +26°C° 0.3 mm 2 mps 750 mmHg 90%

    21 November, Wednesday

    Time Temperature Precipitation Wind Pressure Humidity
    00:00 +26°C° 0.3 mm 2 mps 749 mmHg 91%
    01:00 +26°C° 0.3 mm 2 mps 749 mmHg 91%
    02:00 +26°C° 0.2 mm 2 mps 749 mmHg 91%
    03:00 +26°C° 0.2 mm 2 mps 748 mmHg 92%
    04:00 +26°C° 0.2 mm 2 mps 748 mmHg 92%
    05:00 +26°C° 0 mm 2 mps 749 mmHg 91%
    06:00 +26°C° 0 mm 3 mps 749 mmHg 91%
    07:00 +26°C° 0 mm 3 mps 750 mmHg 91%
    08:00 +27°C° 0 mm 3 mps 750 mmHg 86%
    09:00 +28°C° 0 mm 3 mps 750 mmHg 82%
    10:00 +30°C° 0 mm 3 mps 751 mmHg 78%
    11:00 +30°C° 1.2 mm 3 mps 750 mmHg 77%
    12:00 +30°C° 1.2 mm 3 mps 750 mmHg 77%
    13:00 +31°C° 1.2 mm 3 mps 749 mmHg 76%
    14:00 +30°C° 1.2 mm 3 mps 749 mmHg 78%
    15:00 +30°C° 1.2 mm 3 mps 748 mmHg 80%
    16:00 +29°C° 1.2 mm 2 mps 748 mmHg 82%
    17:00 +28°C° 0.6 mm 2 mps 748 mmHg 84%
    18:00 +27°C° 0.6 mm 2 mps 749 mmHg 87%
    19:00 +26°C° 0.6 mm 2 mps 749 mmHg 90%
    20:00 +26°C° 0.2 mm 2 mps 750 mmHg 90%
    21:00 +26°C° 0.2 mm 2 mps 750 mmHg 90%
    22:00 +26°C° 0.2 mm 2 mps 750 mmHg 90%
    23:00 +26°C° 0.2 mm 2 mps 750 mmHg 91%

    22 November, Thursday

    Time Temperature Precipitation Wind Pressure Humidity
    00:00 +26°C° 0.2 mm 2 mps 750 mmHg 91%
    01:00 +26°C° 0.2 mm 2 mps 749 mmHg 91%
    02:00 +26°C° 0.2 mm 2 mps 749 mmHg 92%
    03:00 +26°C° 0.2 mm 2 mps 749 mmHg 92%
    04:00 +25°C° 0.2 mm 2 mps 749 mmHg 92%
    05:00 +26°C° 0.1 mm 2 mps 749 mmHg 92%
    06:00 +26°C° 0.1 mm 2 mps 749 mmHg 92%
    07:00 +26°C° 0.1 mm 2 mps 750 mmHg 92%
    08:00 +27°C° 0.1 mm 2 mps 750 mmHg 88%
    09:00 +28°C° 0.1 mm 2 mps 750 mmHg 84%
    10:00 +29°C° 0.1 mm 3 mps 750 mmHg 80%
    11:00 +30°C° 0.8 mm 3 mps 750 mmHg 77%
    12:00 +31°C° 0.8 mm 3 mps 749 mmHg 75%
    13:00 +31°C° 0.8 mm 3 mps 749 mmHg 72%
    14:00 +31°C° 1.5 mm 3 mps 748 mmHg 74%
    15:00 +30°C° 1.5 mm 3 mps 748 mmHg 76%
    16:00 +30°C° 1.5 mm 2 mps 747 mmHg 78%
    17:00 +29°C° 1.2 mm 2 mps 748 mmHg 81%
    18:00 +28°C° 1.2 mm 2 mps 748 mmHg 85%
    19:00 +27°C° 1.2 mm 2 mps 749 mmHg 88%
    20:00 +27°C° 0.3 mm 2 mps 749 mmHg 89%
    21:00 +26°C° 0.3 mm 2 mps 749 mmHg 89%
    22:00 +26°C° 0.3 mm 2 mps 750 mmHg 90%
    23:00 +26°C° 0.5 mm 2 mps 749 mmHg 90%
    Show more